Terug naar catalogus

JCSAT 15

ActiefCommunicatieGEO
NORAD 41903·PAYLOAD·🇯🇵 Japan

Gelanceerd Dec 21, 2016 vanaf Guiana Space Centre

Loading…

TLE

VersSource: Space-Track

Epoch: Sep 14, 2026, 14:19 UTC

1 41903U 16082A   26257.59694110 -.00000359  00000-0  00000-0 0  9999
2 41903   0.0183 155.4421 0000605  15.4771 147.6262  1.00271519 35652

Volg JCSAT 15 in realtime met AllMySat

Download on the App Store